Location: Dover
(48.8500°N, 53.9833°W)
Time: 00:49:27
(UTC+00:00)

Meteor 2-3 Rocket - Pass Details

Date: 14 November 2025
Orbit: 841 x 884 km, 81.2° (Epoch: 13 December)

Event Time Altitude Azimuth Distance (km) Brightness Sun altitude
Rises 22:27:31 0° 349° (N) 3,475 7.0 -24.7°
Reaches altitude 10° 22:30:00 10° 352° (N) 2,527 6.2 -25.2°
Enters shadow 22:35:13 64° 43° (NE) 953 3.7 -26.0°
